Flag for Italy Weather past 2 weeks in Varese, Italy

Now
36 °F

Chilly.


Feels Like: 36 °F
Forecast: 26 / 41 °F
Wind: 1 mph from South

Location: Stabio

Current Time: Dec 25, 2014 at 7:00:29 PM

Latest Report: Dec 25, 2014 at 6:00 PM


Visibility: N/A

Pressure: 30.17 "Hg

Humidity: 87%

Dew point: 33 °F

Location of VareseLocation

Historic Weather in Varese — Graph

°F

Varese temperature yesterday

Maximum temperature yesterday: 46 °F (at 2:00 PM)
Minimum temperature yesterday: 30 °F (at 3:00 AM)
Average temperature yesterday: 38 °F

Past Weeks' High & Low Weather Summary

 TemperatureHumidityPressure
High55 °F (Dec 21, 4:00 AM)100% (Dec 13, 10:00 PM)30.53 "Hg (Dec 13, 10:00 PM)
Low27 °F (Dec 12, 7:00 AM)23% (Dec 21, 4:00 AM)29.85 "Hg (Dec 16, 5:00 PM)
Average39 °F89%30.20 "Hg
* Reported Dec 10 5:00 PM — Dec 25 5:00 PM, Varese, Weather by CustomWeather, © 2014

Note: Actual official high and low records may vary slightly from our data, if they occured in-between our weather recording intervals... More about our weather records

Advertising

Varese weather history for previous 24 hours

 ConditionsComfort  
Time TempWeatherWind HumidityBarometerVisibility
5:00 PM
Dec 25
39 °FChilly.1 mph86%30.15 "HgN/A
4:00 PM45 °FCool.1 mph69%30.13 "HgN/A
3:00 PM50 °FCool.2 mph63%30.12 "HgN/A
2:00 PM51 °FCool.3 mph64%30.14 "HgN/A
1:00 PM48 °FCool.1 mph64%30.17 "HgN/A
12:00 PM46 °FCool.2 mph75%30.20 "HgN/A
11:00 AM41 °FQuite cool.1 mph89%30.24 "HgN/A
10:00 AM35 °FChilly.1 mph100%30.26 "HgN/A
9:00 AM31 °FChilly.2 mph98%30.27 "HgN/A
8:00 AM31 °FChilly.1 mph97%30.27 "HgN/A
7:00 AM31 °FChilly.1 mph100%30.27 "HgN/A
6:00 AM31 °FChilly.1 mph100%30.27 "HgN/A
5:00 AM31 °FChilly.No wind100%30.27 "HgN/A
4:00 AM32 °FChilly.1 mph98%30.28 "HgN/A
3:00 AM31 °FChilly.1 mph98%30.30 "HgN/A
2:00 AM32 °FChilly.2 mph95%30.30 "HgN/A
1:00 AM33 °FChilly.2 mph97%30.31 "HgN/A
12:00 AM33 °FChilly.2 mph97%30.32 "HgN/A
11:00 PM
Dec 24
35 °FChilly.2 mph99%30.32 "HgN/A
10:00 PM36 °FChilly.2 mph99%30.31 "HgN/A
9:00 PM40 °FChilly.1 mph100%30.30 "HgN/A
8:00 PM40 °FQuite cool.1 mph93%30.30 "HgN/A
7:00 PM40 °FQuite cool.No wind96%30.29 "HgN/A
Weather by CustomWeather, © 2014

See weather overviewHow to use our weather pages